Location: *
(50.3194°N, 7.1067°E)
Time: 09:09:53
(UTC+00:00)

Cosmos 1626 - Pass Details

Date: 22 September 2019
Orbit: 493 x 495 km, 82.5° (Epoch: 15 October)

Event Time Altitude Azimuth Distance (km) Brightness Sun altitude
Rises 19:24:09 0° 357° (N) 2,591 6.1 -18.4°
Reaches altitude 10° 19:26:28 10° 9° (N) 1,703 5.0 -18.8°
Enters shadow 19:28:58 27° 47° (NE) 979 3.4 -19.1°
